Weather Roundup
Issued by NWS

Home | Current Version | Previous Version | Text Only | Print | Product List | Glossary On
Versions: 1 2 3 4 5 6 7 8 9 10 11 12 13 14 15 16 17 18 19 20 21 22 23 24 25 26 27 28 29 30 31 32 33 34 35 36 37 38 39 40 41 42 43 44 45 46 47 48 49 50
000
NZUS93 KARX 040559
HRRWXR

CURRENT HOURLY OBSERVATIONS ACROSS
MUCH OF THE UPPER MISSISSIPPI VALLEY
NATIONAL WEATHER SERVICE LA CROSSE WI
100 AM CDT TUE AUG 04 2015


...SOUTHEAST MINNESOTA...


CITY           SKY/WX    TMP DP  RH WIND       PRES   REMARKS
ROCHESTER      CLEAR     57  52  83 W8        29.97R
ROCHESTER/MAYO FAIR      63  53  69 W7        29.95S
WINONA         CLEAR     61  55  82 CALM      29.92S
AUSTIN         CLEAR     59  55  88 CALM      29.96S
ALBERT LEA     CLEAR     57  55  94 CALM      29.97S
DODGE CENTER   PTCLDY    55  52  88 W6        29.96S
PRESTON        CLEAR     58  51  78 W7        29.95F
OWATONNA       CLEAR     57  54  88 CALM      29.97R
FARIBAULT      CLEAR     61  54  77 W5        29.96R
$$

...ELSEWHERE IN MINNESOTA...


CITY           SKY/WX    TMP DP  RH WIND       PRES   REMARKS
MINNEAPOLIS    PTCLDY    66  53  63 NW8       29.94S
INTNL FALLS    CLEAR     46  45  96 CALM      29.90R
DULUTH         CLEAR     54  49  83 W7        29.91R
RED WING       CLEAR     59  55  88 NW3       29.92S
REDWOOD FALLS  CLEAR     60  52  74 SW3       29.98R
MANKATO        CLEAR     61  52  72 W6        29.97R
WORTHINGTON    CLEAR     57  52  82 CALM      30.00S
FAIRMONT       CLEAR     61  52  72 CALM      29.97S
$$

...SOUTHWEST WISCONSIN...


CITY           SKY/WX    TMP DP  RH WIND       PRES   REMARKS
LA CROSSE      CLEAR     63  56  78 S6        29.91S
PRAIRIE DU CHI CLEAR     58  54  85 CALM      29.94S
BOSCOBEL       CLEAR     58  55  90 SW3       29.94S
LONE ROCK      NOT AVBL
PLATTEVILLE    CLEAR     60  55  83 CALM      29.95S
FORT MC COY    PTCLDY    54  51  89 CALM      29.92F
VIROQUA        FAIR      61  52  72 W5        29.94S
WIS DELLS      CLEAR     58  51  76 CALM      29.92S
$$

...ELSEWHERE IN WISCONSIN...


CITY           SKY/WX    TMP DP  RH WIND       PRES   REMARKS
MILWAUKEE      PTCLDY    69  51  52 NW5       29.90S
MADISON        CLEAR     62  53  72 CALM      29.92S
GREEN BAY      CLEAR     61  56  83 SW3       29.88R
EAU CLAIRE     NOT AVBL
BLACK RVR FLS  CLOUDY    60  55  81 CALM      29.91S
MEDFORD        CLOUDY    61  55  81 W6        29.91S
WAUSAU         CLOUDY    64  55  72 NW9       29.89R
WIS RAPIDS     CLOUDY    61  52  72 SW5       29.91S
MARSHFIELD     CLOUDY    62  53  72 W6        29.91R
RICE LAKE      MOCLDY    59  53  80 W3        29.94S
$$

...NORTHEAST IOWA...


CITY           SKY/WX    TMP DP  RH WIND       PRES   REMARKS
DECORAH        CLEAR     59  54  82 W3        29.95S
MASON CITY     CLEAR     60  56  86 W5        29.99R
CHARLES CITY   CLEAR     57  57 100 W3        29.97S
OELWEIN        CLEAR     57  55  94 CALM      29.97S
$$

...ELSEWHERE IN IOWA...


CITY           SKY/WX    TMP DP  RH WIND       PRES   REMARKS
DES MOINES     PTCLDY    67  59  75 S3        29.97S
IOWA CITY      CLEAR     63  58  83 CALM      29.97S
FORT DODGE     CLEAR     61  57  88 CALM      29.98S
$$

...NORTHERN ILLINOIS...


CITY           SKY/WX    TMP DP  RH WIND       PRES   REMARKS
CHICAGO-OHARE  CLEAR     67  56  67 NW8       29.91S
CHICAGO-MIDWAY CLEAR     71  55  56 W7        29.91S
MOLINE         CLEAR     62  56  80 SW3       29.95S
ROCKFORD       PTCLDY    63  55  75 CALM      29.95R
PEORIA         CLEAR     68  58  70 CALM      29.96S
$$

NOTE: "FAIR" INDICATES FEW OR NO CLOUDS BELOW 12,000 FEET WITH NO
SIGNIFICANT WEATHER AND/OR OBSTRUCTIONS TO VISIBILITY. WIND
SPEEDS ARE IN MILES-PER-HOUR.



USA.gov is the U.S. government's official web portal to all federal, state and local government web resources and services.